�������l�o���
Date,Time,MP-1(��Sv/h),MP-2(��Sv/h),MP-3(��Sv/h),MP-4(��Sv/h),MP-5(��Sv/h),MP-6(��Sv/h),MP-7(��Sv/h),MP-8(��Sv/h),����,����(m/s),���J
2020/01/04,00:00,0.702,1.014,0.683,1.279,0.893,0.406,0.712,0.676,���k��,6.3,��
2020/01/04,00:10,0.703,1.013,0.683,1.280,0.891,0.406,0.712,0.676,���k��,6.3,��
2020/01/04,00:20,0.706,1.014,0.683,1.277,0.893,0.406,0.714,0.674,���k��,6.6,��
2020/01/04,00:30,0.704,1.015,0.684,1.277,0.893,0.406,0.712,0.677,���k��,4.9,��
2020/01/04,00:40,0.703,1.013,0.684,1.280,0.892,0.406,0.713,0.677,���k��,5.0,��
2020/01/04,00:50,0.703,1.013,0.685,1.276,0.893,0.407,0.713,0.675,���k��,3.8,��
2020/01/04,01:00,0.704,1.013,0.684,1.279,0.892,0.405,0.710,0.676,�k��,3.6,��
2020/01/04,01:10,0.703,1.015,0.684,1.279,0.894,0.405,0.712,0.677,�k��,3.2,��
2020/01/04,01:20,0.703,1.013,0.684,1.281,0.891,0.405,0.712,0.675,�k��,2.6,��
2020/01/04,01:30,0.703,1.015,0.685,1.280,0.892,0.407,0.713,0.675,�k��,2.1,�L
2020/01/04,01:40,0.704,1.014,0.684,1.279,0.893,0.407,0.712,0.676,���k��,2.2,��
2020/01/04,01:50,0.703,1.013,0.682,1.278,0.892,0.407,0.712,0.675,���k��,2.1,��
2020/01/04,02:00,0.706,1.010,0.683,1.279,0.892,0.405,0.712,0.675,��,1.4,��
2020/01/04,02:10,0.703,1.011,0.682,1.278,0.892,0.406,0.712,0.674,�k��,0.5,��
2020/01/04,02:20,0.704,1.011,0.684,1.279,0.891,0.407,0.711,0.675,�k��,0.7,��
2020/01/04,02:30,0.703,1.013,0.683,1.279,0.892,0.406,0.712,0.677,�k�k��,1.3,��
2020/01/04,02:40,0.702,1.013,0.681,1.279,0.892,0.406,0.711,0.676,�k,1.0,��
2020/01/04,02:50,0.703,1.013,0.683,1.278,0.892,0.405,0.711,0.676,�k,0.9,��
2020/01/04,03:00,0.704,1.012,0.683,1.276,0.892,0.406,0.713,0.675,�k,1.0,��
2020/01/04,03:10,0.704,1.012,0.684,1.279,0.891,0.405,0.710,0.675,�k�k��,1.2,��
2020/01/04,03:20,0.702,1.014,0.683,1.279,0.891,0.406,0.712,0.675,�k�k��,1.6,��
2020/01/04,03:30,0.703,1.012,0.682,1.277,0.892,0.406,0.711,0.676,�k�k��,1.0,��
2020/01/04,03:40,0.702,1.012,0.681,1.277,0.892,0.407,0.710,0.675,�k,0.9,��
2020/01/04,03:50,0.703,1.011,0.684,1.277,0.891,0.405,0.711,0.675,�k�k��,1.1,��
2020/01/04,04:00,0.704,1.011,0.684,1.280,0.891,0.404,0.710,0.675,�k�k��,2.8,��
2020/01/04,04:10,0.701,1.012,0.683,1.278,0.890,0.406,0.710,0.675,�k�k��,3.5,��
2020/01/04,04:20,0.703,1.014,0.681,1.277,0.893,0.405,0.710,0.675,�k��,4.1,��
2020/01/04,04:30,0.703,1.012,0.682,1.279,0.893,0.405,0.712,0.676,�k��,5.3,��
2020/01/04,04:40,0.701,1.012,0.682,1.279,0.893,0.406,0.711,0.674,�k��,5.3,��
2020/01/04,04:50,0.702,1.011,0.682,1.279,0.892,0.406,0.712,0.675,�k��,4.7,��
2020/01/04,05:00,0.704,1.012,0.682,1.278,0.891,0.405,0.711,0.676,�k��,3.2,��
2020/01/04,05:10,0.702,1.012,0.683,1.280,0.890,0.404,0.712,0.674,�k��,1.9,��
2020/01/04,05:20,0.703,1.011,0.683,1.279,0.889,0.405,0.711,0.675,-,CALM,��
2020/01/04,05:30,0.703,1.011,0.682,1.277,0.891,0.405,0.709,0.674,�k��,1.2,��
2020/01/04,05:40,0.701,1.012,0.682,1.278,0.890,0.406,0.710,0.675,�k��,2.1,��
2020/01/04,05:50,0.702,1.009,0.682,1.278,0.892,0.404,0.710,0.675,�k��,1.6,��
2020/01/04,06:00,0.704,1.012,0.681,1.278,0.890,0.405,0.709,0.676,�k��,2.1,��
2020/01/04,06:10,0.703,1.012,0.683,1.280,0.892,0.405,0.709,0.675,�k��,1.5,��
2020/01/04,06:20,0.702,1.013,0.682,1.276,0.891,0.404,0.711,0.675,���k��,3.2,��
2020/01/04,06:30,0.700,1.013,0.681,1.278,0.889,0.405,0.710,0.674,���k��,4.1,��
2020/01/04,06:40,0.702,1.012,0.682,1.276,0.891,0.404,0.712,0.675,���k��,3.2,��
2020/01/04,06:50,0.701,1.011,0.683,1.276,0.891,0.404,0.711,0.675,���쐼,2.3,��
2020/01/04,07:00,0.702,1.011,0.683,1.276,0.890,0.405,0.711,0.674,���쐼,1.5,��
2020/01/04,07:10,0.701,1.012,0.683,1.277,0.890,0.405,0.711,0.674,���쐼,1.0,��
2020/01/04,07:20,0.702,1.011,0.682,1.278,0.892,0.405,0.710,0.675,���k��,1.1,��
2020/01/04,07:30,0.702,1.011,0.681,1.277,0.890,0.404,0.711,0.674,�k��,1.0,��
2020/01/04,07:40,0.703,1.013,0.684,1.279,0.891,0.405,0.710,0.675,���쐼,1.4,��
2020/01/04,07:50,0.702,1.010,0.680,1.278,0.891,0.405,0.710,0.675,��쐼,2.6,��
2020/01/04,08:00,0.703,1.012,0.682,1.277,0.892,0.405,0.713,0.675,��,2.9,��
2020/01/04,08:10,0.703,1.012,0.682,1.278,0.892,0.404,0.711,0.676,��,2.1,��
2020/01/04,08:20,0.702,1.013,0.682,1.279,0.891,0.404,0.712,0.675,��쓌,2.5,��
2020/01/04,08:30,0.703,1.012,0.682,1.279,0.891,0.406,0.709,0.677,��쓌,2.1,��
2020/01/04,08:40,0.703,1.015,0.684,1.276,0.892,0.405,0.712,0.675,��쓌,1.7,��
2020/01/04,08:50,0.704,1.013,0.683,1.279,0.890,0.405,0.711,0.678,���쓌,2.1,��
2020/01/04,09:00,0.705,1.012,0.684,1.275,0.891,0.405,0.712,0.676,��쓌,2.5,��
2020/01/04,09:10,0.705,1.013,0.683,1.276,0.889,0.407,0.711,0.676,��쓌,3.3,��
2020/01/04,09:20,0.704,1.014,0.683,1.277,0.890,0.405,0.712,0.674,�쓌,2.6,��
2020/01/04,09:30,0.703,1.016,0.684,1.278,0.892,0.406,0.711,0.678,��쓌,1.5,��
2020/01/04,09:40,0.705,1.012,0.684,1.280,0.894,0.405,0.714,0.678,�쓌,1.1,��
2020/01/04,09:50,0.703,1.015,0.685,1.281,0.891,0.405,0.712,0.676,��,1.1,��
2020/01/04,10:00,0.705,1.015,0.683,1.281,0.894,0.404,0.710,0.676,�k�k��,2.2,��
2020/01/04,10:10,0.704,1.015,0.682,1.279,0.896,0.405,0.708,0.676,�k�k��,2.7,��
2020/01/04,10:20,0.704,1.010,0.684,1.279,0.894,0.406,0.710,0.676,��,2.2,��
2020/01/04,10:30,0.703,1.013,0.682,1.278,0.893,0.405,0.709,0.675,�k��,4.7,��
2020/01/04,10:40,0.705,1.015,0.683,1.280,0.894,0.405,0.711,0.677,�k��,5.2,��
2020/01/04,10:50,0.706,1.014,0.684,1.279,0.894,0.406,0.710,0.675,�k��,3.9,��
2020/01/04,11:00,0.705,1.014,0.684,1.280,0.895,0.406,0.710,0.676,�k��,3.6,��
2020/01/04,11:10,0.704,1.013,0.683,1.280,0.892,0.404,0.710,0.677,�k��,3.6,��
2020/01/04,11:20,0.705,1.014,0.684,1.279,0.896,0.405,0.712,0.676,�k�k��,2.9,��
2020/01/04,11:30,0.706,1.013,0.685,1.281,0.897,0.405,0.709,0.677,�k,3.9,��
2020/01/04,11:40,0.706,1.013,0.685,1.280,0.895,0.406,0.709,0.677,�k�k��,3.4,��
2020/01/04,11:50,0.707,1.013,0.685,1.281,0.897,0.406,0.709,0.677,�k�k��,3.6,��
2020/01/04,12:00,0.706,1.013,0.685,1.281,0.894,0.406,0.711,0.677,�k,3.5,��
2020/01/04,12:10,0.706,1.015,0.685,1.279,0.897,0.406,0.710,0.676,�k�k��,4.5,�L
2020/01/04,12:20,0.708,1.013,0.685,1.279,0.896,0.405,0.711,0.676,�k�k��,4.9,��
2020/01/04,12:30,0.707,1.017,0.686,1.279,0.896,0.406,0.711,0.677,�k�k��,4.0,��
2020/01/04,12:40,0.707,1.013,0.686,1.280,0.897,0.406,0.713,0.676,�k�k��,3.8,��
2020/01/04,12:50,0.708,1.016,0.686,1.280,0.895,0.408,0.712,0.676,�k�k��,3.8,��
2020/01/04,13:00,0.706,1.017,0.683,1.279,0.897,0.405,0.713,0.678,�k�k��,4.2,��
2020/01/04,13:10,0.707,1.017,0.685,1.280,0.896,0.407,0.713,0.676,�k�k��,3.5,��
2020/01/04,13:20,0.707,1.018,0.684,1.282,0.896,0.405,0.711,0.677,�k��,3.8,��
2020/01/04,13:30,0.706,1.016,0.683,1.281,0.895,0.406,0.712,0.677,�k��,2.0,��
2020/01/04,13:40,0.707,1.017,0.686,1.282,0.897,0.406,0.709,0.676,�k��,2.7,��
2020/01/04,13:50,0.708,1.018,0.685,1.278,0.897,0.406,0.713,0.678,�k��,2.7,��
2020/01/04,14:00,0.706,1.018,0.687,1.280,0.896,0.405,0.711,0.678,�k,2.5,��
2020/01/04,14:10,0.706,1.018,0.685,1.280,0.897,0.406,0.712,0.676,�k�k��,4.2,��
2020/01/04,14:20,0.707,1.016,0.686,1.283,0.896,0.405,0.712,0.676,�k�k��,5.2,��
2020/01/04,14:30,0.707,1.019,0.685,1.282,0.899,0.406,0.713,0.676,�k�k��,4.3,��
2020/01/04,14:40,0.706,1.018,0.685,1.284,0.899,0.406,0.711,0.677,�k��,3.6,��
2020/01/04,14:50,0.707,1.020,0.687,1.280,0.896,0.406,0.711,0.677,�k�k��,3.5,��
2020/01/04,15:00,0.707,1.018,0.686,1.282,0.897,0.407,0.712,0.677,�k��,3.2,��
2020/01/04,15:10,0.704,1.019,0.686,1.281,0.896,0.404,0.710,0.678,�k��,3.2,��
2020/01/04,15:20,0.708,1.017,0.686,1.280,0.895,0.406,0.710,0.677,�k��,2.4,��
2020/01/04,15:30,0.707,1.018,0.686,1.281,0.897,0.405,0.712,0.677,�k�k��,2.8,��
2020/01/04,15:40,0.708,1.018,0.686,1.281,0.895,0.405,0.711,0.677,�k,2.1,��
2020/01/04,15:50,0.707,1.018,0.686,1.280,0.896,0.406,0.712,0.677,�k�k��,1.8,��
2020/01/04,16:00,0.706,1.020,0.686,1.281,0.895,0.404,0.713,0.677,�k,1.3,��
2020/01/04,16:10,0.706,1.016,0.685,1.281,0.896,0.406,0.713,0.677,�k��,1.7,��
2020/01/04,16:20,0.706,1.020,0.685,1.280,0.896,0.407,0.712,0.677,�k��,2.4,��
2020/01/04,16:30,0.705,1.018,0.683,1.281,0.895,0.405,0.713,0.676,�k��,2.6,��
2020/01/04,16:40,0.704,1.017,0.683,1.279,0.894,0.405,0.712,0.674,�k��,2.6,��
2020/01/04,16:50,0.706,1.019,0.687,1.282,0.894,0.404,0.711,0.676,���k��,2.1,��
2020/01/04,17:00,0.706,1.016,0.685,1.282,0.894,0.405,0.715,0.676,��,1.3,��
2020/01/04,17:10,0.706,1.017,0.685,1.281,0.895,0.406,0.713,0.676,��,1.3,��
2020/01/04,17:20,0.707,1.018,0.686,1.280,0.897,0.405,0.712,0.676,���쐼,0.7,��
2020/01/04,17:30,0.706,1.017,0.685,1.281,0.896,0.405,0.712,0.674,���k��,1.3,��
2020/01/04,17:40,0.705,1.018,0.683,1.282,0.896,0.405,0.710,0.676,���k��,1.6,��
2020/01/04,17:50,0.705,1.017,0.683,1.280,0.894,0.405,0.712,0.675,�k��,2.2,��
2020/01/04,18:00,0.704,1.017,0.686,1.281,0.897,0.404,0.713,0.676,�k��,2.0,��
2020/01/04,18:10,0.704,1.018,0.685,1.281,0.895,0.407,0.712,0.676,�k��,1.9,��
2020/01/04,18:20,0.706,1.015,0.685,1.281,0.897,0.405,0.713,0.677,�k��,2.7,��
2020/01/04,18:30,0.705,1.018,0.682,1.280,0.895,0.405,0.712,0.674,���k��,3.1,��
2020/01/04,18:40,0.705,1.018,0.683,1.279,0.896,0.406,0.712,0.675,�k��,2.9,��
2020/01/04,18:50,0.704,1.016,0.685,1.279,0.896,0.405,0.712,0.676,���k��,2.5,��
2020/01/04,19:00,0.705,1.019,0.685,1.282,0.898,0.405,0.712,0.675,���k��,2.6,��
2020/01/04,19:10,0.705,1.015,0.683,1.282,0.896,0.406,0.712,0.676,���k��,3.8,��
2020/01/04,19:20,0.704,1.018,0.684,1.282,0.895,0.404,0.711,0.677,���k��,4.1,��
2020/01/04,19:30,0.702,1.017,0.684,1.283,0.896,0.405,0.712,0.674,���k��,4.9,��
2020/01/04,19:40,0.705,1.017,0.682,1.280,0.894,0.404,0.712,0.675,���k��,4.9,��
2020/01/04,19:50,0.704,1.017,0.683,1.281,0.897,0.405,0.711,0.675,���k��,5.0,��
2020/01/04,20:00,0.704,1.018,0.686,1.282,0.895,0.405,0.712,0.677,���k��,5.6,��
2020/01/04,20:10,0.704,1.017,0.685,1.280,0.896,0.404,0.712,0.676,���k��,5.8,��
2020/01/04,20:20,0.703,1.018,0.683,1.280,0.896,0.403,0.711,0.675,�k��,5.5,��
2020/01/04,20:30,0.705,1.017,0.683,1.282,0.897,0.406,0.710,0.675,�k��,5.8,��
2020/01/04,20:40,0.706,1.015,0.683,1.282,0.895,0.404,0.710,0.677,�k��,6.0,��
2020/01/04,20:50,0.704,1.017,0.685,1.283,0.894,0.404,0.711,0.677,�k��,6.3,��
2020/01/04,21:00,0.704,1.020,0.682,1.281,0.896,0.405,0.712,0.677,�k��,6.9,��
2020/01/04,21:10,0.703,1.017,0.686,1.284,0.895,0.404,0.712,0.676,�k��,5.5,��
2020/01/04,21:20,0.705,1.016,0.684,1.281,0.896,0.405,0.712,0.677,�k��,5.2,��
2020/01/04,21:30,0.705,1.016,0.685,1.283,0.896,0.405,0.712,0.675,�k��,5.0,��
2020/01/04,21:40,0.705,1.018,0.684,1.282,0.895,0.405,0.712,0.675,�k��,4.2,��
2020/01/04,21:50,0.705,1.018,0.684,1.283,0.897,0.405,0.712,0.676,�k��,6.0,��
2020/01/04,22:00,0.707,1.017,0.684,1.281,0.897,0.406,0.711,0.677,�k��,6.4,��
2020/01/04,22:10,0.705,1.017,0.686,1.284,0.897,0.405,0.712,0.676,�k��,6.0,��
2020/01/04,22:20,0.705,1.017,0.683,1.283,0.896,0.405,0.711,0.677,�k��,4.7,��
2020/01/04,22:30,0.706,1.018,0.685,1.283,0.896,0.403,0.712,0.677,�k��,4.6,��
2020/01/04,22:40,0.705,1.018,0.686,1.279,0.897,0.404,0.711,0.677,�k��,4.7,��
2020/01/04,22:50,0.705,1.016,0.684,1.283,0.894,0.405,0.712,0.677,�k��,4.1,��
2020/01/04,23:00,0.705,1.019,0.685,1.283,0.896,0.406,0.713,0.677,�k��,3.6,��
2020/01/04,23:10,0.704,1.017,0.684,1.283,0.895,0.405,0.714,0.678,�k��,4.5,��
2020/01/04,23:20,0.705,1.018,0.685,1.282,0.896,0.405,0.712,0.676,�k��,4.9,��
2020/01/04,23:30,0.706,1.019,0.686,1.282,0.897,0.406,0.713,0.676,�k��,4.9,��
2020/01/04,23:40,0.705,1.019,0.685,1.282,0.897,0.405,0.712,0.676,�k��,4.5,��
2020/01/04,23:50,0.703,1.018,0.686,1.283,0.897,0.405,0.712,0.676,�k�k��,4.5,��
